Precipitable_Water
0.28 0.27 0.26 0.25 0.25 0.25 0.25 0.25 0.25 0.24 0.24 0.23 0.23 0.22 0.22 0.21 0.20 0.20 0.21 0.21 0.22 0.23 0.24 0.23 0.26 0.26 0.24 0.25 0.25 0.23 0.26 0.20 0.18 0.15 0.14 0.23 0.32 0.37 0.35 0.31 0.30 0.27 0.17 0.15 0.11 0.11 0.11 0.14 0.13 0.14 0.13 0.13 0.14 0.15 0.17 0.18 0.18 0.18 0.11 0.10 0.09 0.11 0.09 0.13 0.10 0.10 0.13 0.11 0.13 0.15 0.16 0.16 0.14 0.18 0.19 0.23 0.21 0.20 0.21 0.21 0.23 0.26 0.26 0.27 0.28 0.30 0.31 0.29
0.26 0.26 0.25 0.25 0.25 0.25 0.24 0.24 0.24 0.23 0.23 0.22 0.21 0.21 0.20 0.19 0.19 0.20 0.21 0.21 0.22 0.23 0.23 0.23 0.23 0.26 0.25 0.23 0.25 0.24 0.21 0.19 0.17 0.16 0.19 0.30 0.32 0.34 0.36 0.32 0.31 0.24 0.17 0.11 0.10 0.10 0.09 0.09 0.11 0.11 0.10 0.09 0.14 0.11 0.16 0.11 0.16 0.09 0.09 0.09 0.07 0.09 0.10 0.14 0.13 0.14 0.13 0.12 0.15 0.16 0.18 0.17 0.16 0.20 0.20 0.19 0.19 0.20 0.20 0.21 0.24 0.24 0.28 0.29 0.30 0.31 0.32 0.30
0.26 0.25 0.25 0.24 0.24 0.24 0.24 0.23 0.23 0.23 0.22 0.21 0.21 0.20 0.20 0.19 0.19 0.20 0.20 0.20 0.21 0.22 0.23 0.23 0.24 0.24 0.24 0.24 0.24 0.26 0.19 0.16 0.13 0.14 0.21 0.30 0.33 0.34 0.34 0.33 0.30 0.26 0.17 0.13 0.13 0.12 0.10 0.10 0.10 0.09 0.10 0.09 0.11 0.09 0.11 0.10 0.14 0.11 0.10 0.08 0.10 0.14 0.14 0.16 0.16 0.15 0.17 0.17 0.16 0.17 0.18 0.19 0.20 0.21 0.23 0.19 0.18 0.20 0.18 0.19 0.21 0.23 0.24 0.27 0.30 0.33 0.33 0.31
0.25 0.24 0.23 0.23 0.23 0.22 0.22 0.22 0.22 0.22 0.22 0.21 0.21 0.21 0.20 0.20 0.20 0.20 0.20 0.21 0.21 0.21 0.22 0.23 0.25 0.25 0.26 0.23 0.25 0.20 0.18 0.16 0.12 0.18 0.25 0.31 0.34 0.36 0.33 0.33 0.30 0.25 0.21 0.17 0.15 0.13 0.13 0.12 0.10 0.10 0.09 0.09 0.10 0.11 0.09 0.12 0.10 0.11 0.11 0.09 0.11 0.15 0.13 0.16 0.18 0.18 0.19 0.19 0.17 0.17 0.19 0.19 0.20 0.21 0.21 0.19 0.19 0.18 0.20 0.23 0.23 0.23 0.25 0.27 0.31 0.32 0.32 0.30
0.24 0.23 0.23 0.23 0.23 0.23 0.22 0.22 0.22 0.22 0.22 0.21 0.21 0.21 0.20 0.22 0.21 0.20 0.21 0.20 0.20 0.19 0.21 0.23 0.23 0.24 0.24 0.23 0.22 0.22 0.14 0.09 0.12 0.21 0.28 0.31 0.34 0.36 0.34 0.32 0.29 0.25 0.20 0.17 0.17 0.15 0.13 0.11 0.12 0.12 0.11 0.09 0.11 0.11 0.12 0.13 0.15 0.14 0.13 0.15 0.16 0.16 0.14 0.18 0.19 0.20 0.19 0.20 0.19 0.18 0.17 0.17 0.23 0.22 0.21 0.20 0.17 0.17 0.21 0.25 0.28 0.29 0.29 0.30 0.30 0.31 0.31 0.29
0.24 0.24 0.24 0.24 0.23 0.23 0.23 0.22 0.22 0.21 0.21 0.21 0.22 0.21 0.20 0.20 0.20 0.20 0.20 0.20 0.19 0.20 0.19 0.22 0.23 0.21 0.23 0.24 0.24 0.20 0.15 0.06 0.17 0.21 0.30 0.32 0.33 0.33 0.34 0.32 0.29 0.26 0.22 0.18 0.15 0.15 0.13 0.13 0.13 0.12 0.12 0.12 0.12 0.10 0.13 0.15 0.16 0.11 0.15 0.16 0.18 0.18 0.16 0.19 0.20 0.20 0.21 0.19 0.18 0.17 0.19 0.22 0.20 0.19 0.22 0.21 0.20 0.23 0.28 0.30 0.31 0.31 0.31 0.32 0.33 0.32 0.30 0.28
0.25 0.25 0.24 0.24 0.23 0.23 0.22 0.22 0.21 0.21 0.20 0.21 0.20 0.20 0.20 0.20 0.20 0.20 0.20 0.21 0.21 0.21 0.22 0.21 0.20 0.20 0.21 0.21 0.20 0.16 0.14 0.16 0.23 0.27 0.29 0.32 0.32 0.32 0.33 0.31 0.30 0.26 0.24 0.19 0.18 0.15 0.16 0.14 0.14 0.14 0.14 0.13 0.14 0.13 0.15 0.15 0.16 0.14 0.12 0.17 0.18 0.20 0.18 0.21 0.20 0.21 0.20 0.19 0.18 0.20 0.22 0.18 0.19 0.16 0.21 0.20 0.24 0.27 0.29 0.31 0.30 0.30 0.31 0.32 0.32 0.32 0.29 0.26
0.24 0.24 0.24 0.23 0.22 0.22 0.21 0.21 0.21 0.21 0.19 0.19 0.19 0.20 0.19 0.20 0.21 0.20 0.21 0.22 0.22 0.23 0.22 0.19 0.20 0.19 0.24 0.16 0.14 0.14 0.15 0.16 0.24 0.29 0.31 0.31 0.30 0.30 0.30 0.29 0.29 0.26 0.23 0.21 0.20 0.18 0.18 0.16 0.15 0.17 0.15 0.12 0.14 0.14 0.16 0.15 0.17 0.14 0.14 0.18 0.19 0.20 0.21 0.21 0.21 0.21 0.20 0.20 0.21 0.21 0.18 0.18 0.19 0.18 0.21 0.19 0.24 0.27 0.29 0.30 0.30 0.30 0.32 0.33 0.33 0.31 0.28 0.25
0.24 0.24 0.23 0.23 0.23 0.23 0.22 0.22 0.21 0.20 0.20 0.19 0.20 0.20 0.20 0.20 0.20 0.21 0.21 0.22 0.21 0.22 0.20 0.20 0.19 0.18 0.19 0.16 0.15 0.12 0.14 0.24 0.28 0.30 0.31 0.29 0.29 0.30 0.31 0.26 0.29 0.26 0.25 0.25 0.25 0.22 0.21 0.17 0.17 0.19 0.14 0.15 0.18 0.16 0.17 0.16 0.13 0.18 0.17 0.19 0.19 0.19 0.20 0.21 0.21 0.21 0.20 0.21 0.21 0.19 0.17 0.19 0.20 0.23 0.18 0.21 0.24 0.28 0.29 0.29 0.30 0.31 0.32 0.32 0.31 0.30 0.28 0.26
0.25 0.25 0.24 0.24 0.23 0.23 0.23 0.22 0.21 0.20 0.20 0.20 0.20 0.20 0.21 0.21 0.21 0.21 0.21 0.21 0.21 0.20 0.20 0.21 0.20 0.22 0.19 0.17 0.14 0.12 0.20 0.29 0.30 0.31 0.30 0.30 0.30 0.30 0.29 0.29 0.29 0.26 0.24 0.25 0.25 0.24 0.21 0.20 0.20 0.21 0.20 0.18 0.20 0.16 0.19 0.16 0.14 0.21 0.19 0.18 0.17 0.19 0.19 0.21 0.19 0.20 0.21 0.20 0.21 0.17 0.16 0.17 0.21 0.20 0.15 0.23 0.26 0.28 0.28 0.28 0.30 0.31 0.30 0.31 0.30 0.29 0.29 0.28
0.25 0.24 0.24 0.24 0.23 0.22 0.22 0.22 0.23 0.23 0.22 0.22 0.22 0.21 0.21 0.20 0.19 0.19 0.21 0.22 0.23 0.22 0.21 0.22 0.24 0.23 0.18 0.17 0.14 0.14 0.27 0.29 0.31 0.31 0.30 0.30 0.29 0.27 0.28 0.29 0.30 0.27 0.26 0.26 0.26 0.29 0.27 0.26 0.27 0.25 0.23 0.17 0.21 0.17 0.18 0.18 0.21 0.19 0.18 0.18 0.18 0.19 0.19 0.20 0.20 0.20 0.21 0.18 0.21 0.19 0.16 0.19 0.19 0.19 0.17 0.21 0.26 0.27 0.26 0.27 0.29 0.30 0.30 0.31 0.30 0.29 0.30 0.30
0.24 0.23 0.24 0.23 0.23 0.23 0.23 0.24 0.23 0.23 0.23 0.23 0.22 0.21 0.20 0.20 0.19 0.20 0.21 0.23 0.25 0.24 0.22 0.21 0.21 0.23 0.22 0.19 0.18 0.19 0.31 0.30 0.32 0.32 0.31 0.30 0.28 0.30 0.32 0.32 0.32 0.30 0.28 0.26 0.27 0.30 0.30 0.28 0.30 0.26 0.16 0.25 0.16 0.20 0.19 0.23 0.20 0.19 0.20 0.14 0.16 0.17 0.16 0.19 0.18 0.20 0.21 0.19 0.22 0.21 0.16 0.15 0.16 0.15 0.20 0.23 0.26 0.26 0.26 0.26 0.28 0.29 0.30 0.29 0.29 0.29 0.29 0.29
0.24 0.24 0.24 0.24 0.23 0.23 0.23 0.24 0.23 0.23 0.22 0.22 0.22 0.21 0.20 0.20 0.20 0.20 0.23 0.21 0.25 0.27 0.26 0.25 0.23 0.21 0.20 0.17 0.22 0.29 0.32 0.34 0.33 0.32 0.31 0.32 0.31 0.32 0.33 0.35 0.34 0.33 0.32 0.28 0.28 0.30 0.31 0.31 0.28 0.22 0.25 0.22 0.19 0.16 0.21 0.24 0.20 0.20 0.18 0.16 0.15 0.15 0.14 0.19 0.21 0.20 0.20 0.20 0.23 0.20 0.10 0.10 0.15 0.18 0.21 0.24 0.25 0.25 0.25 0.25 0.27 0.28 0.29 0.29 0.30 0.29 0.28 0.29
0.24 0.24 0.24 0.24 0.24 0.23 0.23 0.23 0.23 0.23 0.22 0.22 0.22 0.22 0.20 0.20 0.22 0.23 0.24 0.24 0.25 0.28 0.28 0.28 0.28 0.26 0.20 0.21 0.28 0.32 0.35 0.36 0.35 0.31 0.30 0.33 0.30 0.30 0.32 0.34 0.37 0.36 0.36 0.32 0.32 0.32 0.30 0.31 0.29 0.26 0.28 0.23 0.18 0.28 0.20 0.19 0.20 0.15 0.16 0.18 0.13 0.13 0.11 0.18 0.19 0.20 0.17 0.21 0.21 0.20 0.09 0.11 0.15 0.19 0.21 0.23 0.24 0.23 0.22 0.24 0.26 0.27 0.27 0.28 0.28 0.28 0.28 0.29
0.23 0.24 0.24 0.24 0.24 0.23 0.23 0.23 0.22 0.22 0.22 0.21 0.22 0.22 0.21 0.20 0.21 0.23 0.25 0.27 0.27 0.27 0.32 0.36 0.31 0.24 0.21 0.23 0.33 0.37 0.40 0.39 0.31 0.32 0.35 0.31 0.30 0.29 0.30 0.33 0.32 0.35 0.36 0.35 0.32 0.32 0.32 0.30 0.27 0.23 0.20 0.26 0.25 0.20 0.16 0.16 0.17 0.17 0.14 0.11 0.14 0.12 0.13 0.17 0.21 0.19 0.16 0.19 0.20 0.15 0.10 0.11 0.15 0.19 0.21 0.22 0.23 0.23 0.22 0.24 0.25 0.25 0.26 0.26 0.27 0.27 0.28 0.29
0.23 0.23 0.24 0.24 0.24 0.23 0.22 0.22 0.22 0.22 0.21 0.22 0.22 0.24 0.23 0.24 0.24 0.24 0.25 0.28 0.32 0.30 0.28 0.25 0.26 0.27 0.23 0.21 0.29 0.43 0.36 0.29 0.29 0.36 0.38 0.37 0.33 0.30 0.33 0.34 0.36 0.36 0.36 0.34 0.37 0.35 0.34 0.30 0.24 0.23 0.22 0.24 0.20 0.18 0.16 0.15 0.14 0.16 0.14 0.11 0.11 0.13 0.13 0.15 0.18 0.20 0.20 0.18 0.19 0.16 0.10 0.13 0.15 0.20 0.22 0.22 0.22 0.23 0.22 0.23 0.24 0.24 0.25 0.25 0.25 0.26 0.28 0.29
0.21 0.23 0.23 0.23 0.22 0.22 0.22 0.23 0.24 0.24 0.24 0.23 0.24 0.26 0.26 0.25 0.24 0.27 0.27 0.28 0.29 0.34 0.31 0.26 0.29 0.29 0.19 0.31 0.41 0.31 0.29 0.33 0.38 0.36 0.37 0.40 0.36 0.33 0.34 0.33 0.33 0.34 0.35 0.34 0.36 0.35 0.31 0.28 0.27 0.26 0.24 0.19 0.19 0.16 0.12 0.11 0.11 0.12 0.15 0.12 0.13 0.12 0.13 0.12 0.18 0.19 0.19 0.18 0.14 0.16 0.13 0.14 0.17 0.20 0.21 0.22 0.22 0.22 0.21 0.22 0.23 0.23 0.24 0.24 0.24 0.25 0.27 0.28
0.21 0.22 0.21 0.21 0.21 0.21 0.22 0.23 0.25 0.26 0.27 0.27 0.27 0.27 0.28 0.28 0.28 0.26 0.26 0.27 0.30 0.32 0.33 0.34 0.29 0.27 0.24 0.35 0.25 0.28 0.36 0.35 0.36 0.36 0.38 0.40 0.40 0.36 0.33 0.31 0.34 0.34 0.34 0.32 0.33 0.30 0.31 0.25 0.27 0.18 0.19 0.18 0.16 0.15 0.10 0.07 0.10 0.11 0.11 0.12 0.12 0.14 0.14 0.13 0.13 0.16 0.18 0.18 0.15 0.15 0.15 0.15 0.17 0.20 0.21 0.21 0.22 0.21 0.21 0.21 0.22 0.22 0.23 0.23 0.23 0.25 0.26 0.28
0.21 0.21 0.21 0.20 0.20 0.20 0.22 0.23 0.25 0.26 0.27 0.30 0.32 0.32 0.36 0.36 0.32 0.29 0.27 0.28 0.26 0.24 0.22 0.24 0.25 0.18 0.17 0.27 0.34 0.36 0.37 0.40 0.41 0.39 0.34 0.38 0.39 0.39 0.38 0.39 0.35 0.31 0.28 0.28 0.26 0.29 0.29 0.25 0.26 0.19 0.14 0.14 0.14 0.14 0.13 0.14 0.15 0.13 0.13 0.13 0.13 0.12 0.12 0.13 0.16 0.19 0.19 0.15 0.14 0.15 0.13 0.14 0.16 0.18 0.19 0.20 0.21 0.20 0.20 0.22 0.21 0.22 0.22 0.23 0.23 0.24 0.26 0.27
0.21 0.21 0.20 0.19 0.19 0.20 0.22 0.25 0.28 0.28 0.28 0.26 0.26 0.26 0.27 0.24 0.24 0.24 0.29 0.29 0.26 0.27 0.27 0.29 0.32 0.31 0.33 0.33 0.33 0.39 0.45 0.45 0.36 0.37 0.38 0.40 0.39 0.36 0.34 0.36 0.34 0.33 0.29 0.24 0.27 0.27 0.29 0.21 0.17 0.16 0.17 0.17 0.18 0.17 0.17 0.17 0.17 0.16 0.15 0.14 0.13 0.13 0.14 0.16 0.17 0.19 0.20 0.17 0.15 0.15 0.15 0.15 0.16 0.17 0.18 0.19 0.20 0.20 0.19 0.19 0.19 0.20 0.21 0.22 0.22 0.24 0.26 0.27
0.21 0.21 0.20 0.19 0.19 0.19 0.21 0.26 0.31 0.30 0.27 0.26 0.26 0.25 0.20 0.21 0.19 0.18 0.24 0.26 0.30 0.31 0.30 0.31 0.32 0.32 0.31 0.36 0.38 0.38 0.34 0.35 0.40 0.37 0.39 0.44 0.37 0.37 0.31 0.34 0.30 0.26 0.28 0.29 0.27 0.30 0.29 0.20 0.18 0.21 0.22 0.21 0.20 0.20 0.19 0.18 0.18 0.16 0.14 0.13 0.13 0.14 0.12 0.16 0.16 0.19 0.20 0.17 0.14 0.16 0.15 0.15 0.16 0.17 0.19 0.20 0.20 0.17 0.18 0.18 0.18 0.19 0.20 0.21 0.22 0.23 0.25 0.27
0.21 0.21 0.20 0.20 0.19 0.19 0.21 0.26 0.32 0.32 0.33 0.30 0.29 0.25 0.27 0.29 0.33 0.33 0.29 0.20 0.26 0.30 0.31 0.31 0.35 0.32 0.38 0.38 0.41 0.42 0.39 0.33 0.34 0.37 0.41 0.43 0.35 0.32 0.31 0.32 0.29 0.25 0.29 0.29 0.29 0.26 0.23 0.19 0.22 0.24 0.25 0.25 0.23 0.21 0.20 0.17 0.16 0.17 0.14 0.13 0.13 0.13 0.15 0.17 0.18 0.20 0.20 0.18 0.15 0.17 0.14 0.14 0.15 0.17 0.18 0.19 0.19 0.19 0.20 0.19 0.19 0.19 0.20 0.20 0.22 0.23 0.24 0.26
0.21 0.21 0.20 0.21 0.20 0.20 0.21 0.24 0.29 0.32 0.31 0.28 0.26 0.27 0.27 0.35 0.40 0.38 0.32 0.25 0.23 0.29 0.29 0.30 0.29 0.31 0.33 0.39 0.40 0.44 0.34 0.31 0.30 0.35 0.38 0.43 0.35 0.33 0.32 0.30 0.28 0.28 0.28 0.29 0.23 0.22 0.19 0.22 0.25 0.27 0.26 0.24 0.22 0.21 0.19 0.17 0.17 0.16 0.15 0.13 0.11 0.14 0.13 0.11 0.16 0.18 0.19 0.17 0.15 0.16 0.14 0.14 0.16 0.17 0.18 0.19 0.20 0.20 0.21 0.20 0.20 0.21 0.20 0.20 0.21 0.22 0.23 0.25
0.22 0.22 0.21 0.20 0.22 0.20 0.21 0.22 0.25 0.27 0.28 0.29 0.27 0.27 0.35 0.38 0.39 0.34 0.26 0.20 0.20 0.24 0.29 0.30 0.31 0.32 0.32 0.33 0.39 0.39 0.35 0.33 0.36 0.33 0.43 0.42 0.34 0.37 0.34 0.30 0.28 0.27 0.25 0.26 0.25 0.22 0.20 0.25 0.29 0.28 0.27 0.24 0.21 0.21 0.19 0.17 0.14 0.16 0.16 0.15 0.13 0.13 0.15 0.14 0.14 0.18 0.19 0.20 0.18 0.16 0.14 0.13 0.15 0.15 0.16 0.18 0.21 0.20 0.20 0.20 0.20 0.20 0.21 0.21 0.22 0.24 0.25 0.24
0.22 0.21 0.22 0.21 0.21 0.23 0.20 0.20 0.18 0.23 0.29 0.26 0.24 0.32 0.34 0.36 0.36 0.32 0.22 0.21 0.23 0.22 0.32 0.30 0.34 0.34 0.36 0.45 0.43 0.35 0.36 0.38 0.37 0.40 0.43 0.42 0.37 0.37 0.31 0.34 0.31 0.24 0.25 0.26 0.26 0.23 0.23 0.27 0.30 0.27 0.26 0.25 0.23 0.20 0.20 0.18 0.14 0.14 0.16 0.16 0.16 0.16 0.15 0.16 0.17 0.16 0.14 0.14 0.16 0.15 0.09 0.10 0.13 0.15 0.15 0.17 0.19 0.18 0.19 0.18 0.18 0.18 0.19 0.21 0.21 0.22 0.24 0.27
0.23 0.23 0.23 0.21 0.21 0.22 0.25 0.14 0.16 0.21 0.22 0.22 0.26 0.32 0.34 0.33 0.32 0.31 0.22 0.18 0.16 0.21 0.30 0.22 0.34 0.28 0.44 0.35 0.40 0.37 0.39 0.31 0.39 0.41 0.44 0.43 0.47 0.36 0.35 0.30 0.30 0.22 0.25 0.25 0.23 0.23 0.24 0.28 0.28 0.26 0.25 0.25 0.23 0.21 0.22 0.21 0.16 0.13 0.14 0.19 0.18 0.17 0.17 0.16 0.16 0.15 0.11 0.10 0.14 0.17 0.09 0.08 0.13 0.13 0.15 0.16 0.17 0.18 0.20 0.18 0.18 0.19 0.20 0.21 0.21 0.23 0.24 0.25
0.26 0.25 0.24 0.23 0.23 0.23 0.18 0.15 0.21 0.20 0.15 0.18 0.30 0.34 0.32 0.32 0.32 0.24 0.18 0.14 0.14 0.21 0.22 0.28 0.32 0.31 0.41 0.36 0.38 0.40 0.23 0.28 0.42 0.42 0.41 0.44 0.38 0.42 0.31 0.28 0.31 0.29 0.28 0.28 0.26 0.19 0.26 0.26 0.26 0.26 0.25 0.24 0.23 0.21 0.23 0.22 0.18 0.14 0.19 0.20 0.20 0.18 0.17 0.16 0.17 0.15 0.14 0.17 0.17 0.17 0.14 0.09 0.09 0.13 0.16 0.17 0.17 0.17 0.18 0.17 0.18 0.20 0.20 0.21 0.22 0.23 0.24 0.25
0.27 0.26 0.26 0.26 0.25 0.24 0.20 0.23 0.21 0.18 0.18 0.23 0.30 0.29 0.31 0.29 0.32 0.23 0.17 0.12 0.12 0.24 0.22 0.27 0.31 0.40 0.38 0.38 0.39 0.33 0.31 0.37 0.32 0.36 0.42 0.43 0.44 0.37 0.34 0.29 0.28 0.27 0.28 0.27 0.17 0.24 0.25 0.24 0.25 0.24 0.25 0.24 0.22 0.24 0.25 0.25 0.20 0.18 0.22 0.22 0.19 0.19 0.19 0.19 0.17 0.16 0.16 0.14 0.11 0.14 0.15 0.10 0.09 0.12 0.16 0.17 0.14 0.16 0.17 0.17 0.18 0.19 0.20 0.21 0.22 0.23 0.25 0.26
0.27 0.28 0.28 0.29 0.27 0.27 0.27 0.23 0.22 0.21 0.28 0.32 0.31 0.31 0.31 0.29 0.23 0.17 0.15 0.12 0.20 0.23 0.33 0.26 0.40 0.36 0.35 0.39 0.35 0.35 0.34 0.37 0.30 0.36 0.42 0.45 0.44 0.38 0.31 0.32 0.32 0.31 0.31 0.29 0.22 0.25 0.27 0.28 0.27 0.27 0.26 0.23 0.26 0.27 0.27 0.26 0.21 0.24 0.25 0.25 0.24 0.24 0.22 0.20 0.17 0.16 0.15 0.13 0.09 0.12 0.14 0.09 0.09 0.12 0.13 0.16 0.15 0.14 0.16 0.17 0.18 0.19 0.20 0.21 0.22 0.23 0.25 0.26
0.29 0.29 0.30 0.31 0.34 0.28 0.26 0.29 0.26 0.32 0.35 0.35 0.34 0.32 0.29 0.26 0.22 0.15 0.13 0.11 0.23 0.19 0.29 0.30 0.31 0.28 0.34 0.30 0.30 0.34 0.32 0.34 0.36 0.38 0.40 0.37 0.39 0.43 0.39 0.41 0.35 0.32 0.29 0.32 0.29 0.29 0.30 0.35 0.35 0.29 0.26 0.28 0.29 0.29 0.29 0.28 0.28 0.30 0.27 0.23 0.23 0.23 0.21 0.21 0.19 0.17 0.15 0.10 0.11 0.14 0.15 0.13 0.08 0.11 0.12 0.13 0.13 0.16 0.17 0.18 0.18 0.19 0.21 0.22 0.23 0.24 0.24 0.25
0.30 0.31 0.31 0.31 0.27 0.29 0.28 0.24 0.29 0.37 0.38 0.38 0.37 0.35 0.28 0.23 0.16 0.14 0.12 0.16 0.24 0.24 0.31 0.30 0.27 0.34 0.30 0.28 0.26 0.33 0.33 0.34 0.34 0.36 0.33 0.38 0.35 0.37 0.36 0.33 0.38 0.32 0.30 0.30 0.28 0.31 0.32 0.33 0.31 0.32 0.35 0.34 0.33 0.29 0.32 0.32 0.31 0.29 0.24 0.22 0.22 0.21 0.20 0.19 0.18 0.17 0.12 0.10 0.13 0.16 0.15 0.15 0.09 0.10 0.14 0.16 0.18 0.19 0.18 0.17 0.17 0.19 0.20 0.21 0.22 0.23 0.24 0.26
0.31 0.33 0.34 0.32 0.33 0.33 0.26 0.25 0.33 0.41 0.39 0.39 0.35 0.29 0.24 0.19 0.21 0.14 0.13 0.24 0.18 0.23 0.26 0.28 0.31 0.30 0.30 0.31 0.30 0.30 0.30 0.33 0.34 0.34 0.31 0.31 0.31 0.30 0.30 0.27 0.29 0.24 0.24 0.25 0.24 0.31 0.28 0.30 0.34 0.34 0.37 0.34 0.31 0.29 0.29 0.31 0.31 0.29 0.26 0.24 0.18 0.16 0.16 0.15 0.16 0.13 0.13 0.12 0.16 0.17 0.17 0.14 0.13 0.14 0.16 0.17 0.18 0.20 0.20 0.19 0.19 0.19 0.20 0.21 0.22 0.23 0.24 0.26
0.32 0.33 0.36 0.35 0.36 0.32 0.34 0.38 0.42 0.42 0.44 0.37 0.32 0.29 0.24 0.19 0.15 0.19 0.18 0.21 0.19 0.26 0.26 0.33 0.30 0.31 0.31 0.30 0.28 0.31 0.34 0.28 0.34 0.33 0.34 0.32 0.31 0.31 0.33 0.32 0.33 0.29 0.22 0.26 0.26 0.26 0.27 0.32 0.34 0.33 0.35 0.36 0.34 0.26 0.26 0.26 0.29 0.28 0.25 0.23 0.19 0.16 0.15 0.14 0.15 0.17 0.16 0.18 0.19 0.19 0.20 0.14 0.15 0.17 0.19 0.18 0.20 0.22 0.21 0.21 0.21 0.21 0.21 0.21 0.22 0.23 0.24 0.25
0.34 0.34 0.32 0.36 0.36 0.38 0.40 0.43 0.44 0.45 0.40 0.35 0.29 0.25 0.25 0.19 0.18 0.27 0.22 0.24 0.25 0.31 0.31 0.31 0.32 0.33 0.32 0.28 0.29 0.32 0.28 0.33 0.32 0.31 0.34 0.30 0.31 0.28 0.31 0.33 0.34 0.31 0.30 0.29 0.24 0.25 0.22 0.24 0.30 0.33 0.29 0.37 0.34 0.32 0.30 0.28 0.29 0.29 0.30 0.27 0.22 0.20 0.17 0.15 0.16 0.15 0.16 0.17 0.20 0.22 0.17 0.14 0.14 0.17 0.21 0.22 0.24 0.24 0.24 0.23 0.23 0.23 0.23 0.23 0.24 0.24 0.24 0.25
0.36 0.35 0.35 0.35 0.36 0.38 0.40 0.42 0.44 0.45 0.38 0.32 0.28 0.25 0.21 0.20 0.23 0.23 0.24 0.27 0.29 0.30 0.30 0.34 0.31 0.31 0.30 0.32 0.33 0.34 0.32 0.29 0.34 0.32 0.31 0.30 0.28 0.29 0.28 0.30 0.33 0.34 0.32 0.27 0.28 0.28 0.26 0.27 0.33 0.38 0.36 0.37 0.33 0.36 0.36 0.32 0.31 0.32 0.32 0.32 0.26 0.23 0.27 0.20 0.21 0.20 0.20 0.20 0.20 0.20 0.18 0.20 0.19 0.24 0.25 0.25 0.26 0.26 0.26 0.25 0.24 0.23 0.24 0.24 0.24 0.24 0.24 0.25
0.36 0.32 0.35 0.31 0.32 0.36 0.41 0.43 0.44 0.43 0.36 0.31 0.26 0.24 0.22 0.24 0.23 0.28 0.26 0.32 0.31 0.30 0.31 0.33 0.33 0.31 0.30 0.31 0.34 0.32 0.37 0.32 0.33 0.32 0.31 0.31 0.31 0.29 0.32 0.32 0.32 0.34 0.31 0.27 0.29 0.25 0.28 0.25 0.35 0.37 0.39 0.37 0.36 0.37 0.35 0.36 0.24 0.30 0.32 0.26 0.28 0.32 0.29 0.24 0.24 0.25 0.24 0.22 0.20 0.24 0.22 0.23 0.25 0.25 0.25 0.26 0.26 0.26 0.26 0.26 0.25 0.24 0.24 0.25 0.24 0.25 0.25 0.26
0.30 0.32 0.27 0.31 0.32 0.38 0.41 0.43 0.43 0.39 0.35 0.30 0.26 0.22 0.26 0.27 0.30 0.31 0.33 0.31 0.32 0.33 0.31 0.27 0.29 0.31 0.29 0.29 0.31 0.33 0.33 0.35 0.33 0.32 0.28 0.32 0.30 0.32 0.32 0.33 0.36 0.35 0.36 0.33 0.29 0.33 0.26 0.27 0.35 0.35 0.33 0.38 0.40 0.39 0.37 0.37 0.37 0.33 0.27 0.30 0.34 0.35 0.32 0.27 0.21 0.22 0.21 0.18 0.19 0.23 0.21 0.21 0.21 0.18 0.25 0.26 0.26 0.27 0.27 0.27 0.26 0.26 0.26 0.25 0.25 0.26 0.26 0.27
0.29 0.29 0.30 0.29 0.34 0.39 0.41 0.42 0.41 0.36 0.33 0.28 0.24 0.25 0.29 0.27 0.34 0.35 0.38 0.35 0.35 0.35 0.32 0.31 0.31 0.35 0.31 0.31 0.31 0.33 0.35 0.33 0.32 0.33 0.29 0.32 0.28 0.37 0.33 0.33 0.36 0.36 0.36 0.38 0.31 0.31 0.33 0.26 0.31 0.35 0.35 0.38 0.41 0.39 0.36 0.38 0.39 0.34 0.32 0.38 0.30 0.25 0.24 0.28 0.24 0.18 0.17 0.17 0.18 0.22 0.23 0.22 0.22 0.21 0.25 0.25 0.26 0.27 0.28 0.29 0.28 0.27 0.27 0.26 0.26 0.27 0.28 0.28
0.29 0.27 0.22 0.29 0.38 0.38 0.39 0.40 0.36 0.32 0.29 0.26 0.25 0.25 0.29 0.31 0.36 0.36 0.37 0.38 0.38 0.35 0.32 0.33 0.31 0.35 0.35 0.33 0.34 0.35 0.36 0.31 0.34 0.32 0.29 0.31 0.29 0.35 0.34 0.35 0.33 0.37 0.37 0.37 0.33 0.33 0.34 0.26 0.28 0.35 0.35 0.37 0.38 0.36 0.28 0.32 0.37 0.39 0.39 0.36 0.37 0.33 0.29 0.26 0.25 0.25 0.23 0.18 0.18 0.19 0.22 0.19 0.24 0.23 0.25 0.26 0.29 0.29 0.29 0.30 0.29 0.29 0.29 0.28 0.28 0.28 0.28 0.29
0.24 0.21 0.21 0.32 0.37 0.38 0.37 0.35 0.31 0.29 0.27 0.24 0.26 0.26 0.31 0.30 0.34 0.38 0.39 0.38 0.33 0.33 0.32 0.33 0.35 0.33 0.35 0.35 0.36 0.33 0.36 0.35 0.34 0.33 0.33 0.33 0.32 0.38 0.35 0.38 0.34 0.35 0.37 0.37 0.34 0.35 0.30 0.33 0.24 0.31 0.37 0.36 0.30 0.34 0.31 0.33 0.31 0.33 0.33 0.32 0.34 0.33 0.36 0.33 0.31 0.27 0.24 0.21 0.20 0.19 0.18 0.22 0.25 0.28 0.28 0.28 0.30 0.31 0.31 0.31 0.32 0.32 0.32 0.31 0.30 0.30 0.30 0.31
0.25 0.20 0.21 0.33 0.35 0.38 0.37 0.29 0.26 0.24 0.24 0.27 0.29 0.28 0.31 0.29 0.33 0.36 0.38 0.40 0.36 0.40 0.34 0.34 0.35 0.33 0.34 0.34 0.34 0.36 0.34 0.35 0.34 0.32 0.33 0.33 0.33 0.30 0.37 0.36 0.37 0.34 0.37 0.35 0.33 0.33 0.30 0.30 0.25 0.29 0.30 0.30 0.31 0.37 0.37 0.36 0.36 0.34 0.33 0.32 0.33 0.31 0.29 0.25 0.24 0.31 0.28 0.25 0.22 0.20 0.19 0.25 0.29 0.32 0.32 0.32 0.32 0.32 0.33 0.33 0.33 0.34 0.34 0.34 0.33 0.33 0.33 0.33
0.20 0.17 0.19 0.33 0.34 0.34 0.27 0.22 0.24 0.27 0.26 0.25 0.25 0.29 0.29 0.35 0.32 0.34 0.35 0.38 0.36 0.33 0.39 0.36 0.36 0.35 0.35 0.35 0.36 0.35 0.34 0.33 0.33 0.33 0.34 0.32 0.35 0.34 0.36 0.40 0.37 0.37 0.34 0.32 0.31 0.35 0.34 0.32 0.29 0.26 0.29 0.31 0.34 0.38 0.39 0.40 0.39 0.36 0.36 0.33 0.35 0.34 0.33 0.28 0.22 0.26 0.29 0.28 0.29 0.26 0.22 0.23 0.31 0.32 0.33 0.34 0.34 0.34 0.34 0.34 0.34 0.34 0.35 0.36 0.36 0.36 0.36 0.36
0.19 0.18 0.25 0.31 0.33 0.29 0.23 0.21 0.25 0.24 0.24 0.28 0.33 0.32 0.33 0.31 0.31 0.34 0.32 0.34 0.31 0.35 0.34 0.34 0.35 0.34 0.36 0.36 0.36 0.36 0.36 0.33 0.34 0.33 0.35 0.35 0.35 0.36 0.39 0.39 0.39 0.36 0.36 0.34 0.35 0.35 0.37 0.30 0.28 0.29 0.32 0.35 0.37 0.39 0.40 0.40 0.38 0.35 0.36 0.36 0.35 0.32 0.33 0.31 0.30 0.31 0.28 0.28 0.26 0.25 0.22 0.25 0.32 0.34 0.34 0.35 0.35 0.35 0.34 0.34 0.34 0.35 0.36 0.38 0.39 0.39 0.38 0.37
0.21 0.20 0.21 0.30 0.33 0.29 0.22 0.18 0.19 0.21 0.24 0.27 0.28 0.27 0.32 0.30 0.30 0.30 0.30 0.32 0.31 0.32 0.31 0.33 0.35 0.37 0.34 0.38 0.37 0.34 0.37 0.31 0.36 0.36 0.35 0.37 0.35 0.41 0.40 0.39 0.39 0.35 0.35 0.34 0.32 0.36 0.29 0.31 0.29 0.26 0.27 0.30 0.32 0.35 0.35 0.38 0.37 0.34 0.33 0.35 0.36 0.36 0.35 0.34 0.34 0.33 0.27 0.28 0.28 0.25 0.20 0.24 0.31 0.35 0.35 0.35 0.34 0.33 0.33 0.35 0.36 0.36 0.38 0.39 0.40 0.40 0.41 0.40
0.21 0.23 0.23 0.25 0.30 0.27 0.21 0.22 0.20 0.21 0.22 0.22 0.23 0.23 0.25 0.27 0.32 0.32 0.30 0.30 0.34 0.32 0.32 0.32 0.34 0.35 0.34 0.36 0.35 0.36 0.37 0.35 0.32 0.36 0.36 0.36 0.35 0.40 0.39 0.39 0.39 0.37 0.39 0.40 0.39 0.40 0.32 0.31 0.29 0.24 0.22 0.20 0.20 0.21 0.23 0.27 0.31 0.34 0.35 0.35 0.35 0.34 0.33 0.31 0.27 0.28 0.24 0.27 0.29 0.25 0.24 0.31 0.33 0.35 0.34 0.34 0.34 0.34 0.35 0.35 0.36 0.37 0.38 0.39 0.40 0.41 0.42 0.42
0.18 0.15 0.20 0.22 0.26 0.26 0.26 0.29 0.26 0.23 0.22 0.22 0.21 0.23 0.25 0.24 0.29 0.32 0.32 0.31 0.33 0.32 0.32 0.33 0.34 0.35 0.33 0.33 0.32 0.32 0.33 0.35 0.33 0.32 0.34 0.33 0.34 0.36 0.38 0.38 0.37 0.36 0.38 0.40 0.40 0.38 0.33 0.34 0.32 0.30 0.28 0.27 0.29 0.30 0.34 0.35 0.34 0.31 0.33 0.34 0.33 0.35 0.35 0.34 0.32 0.28 0.25 0.27 0.27 0.28 0.28 0.29 0.31 0.34 0.34 0.34 0.34 0.33 0.34 0.35 0.36 0.36 0.38 0.40 0.41 0.41 0.42 0.43
0.21 0.17 0.19 0.19 0.25 0.25 0.25 0.27 0.25 0.25 0.22 0.25 0.21 0.24 0.22 0.24 0.26 0.27 0.32 0.26 0.32 0.31 0.31 0.31 0.31 0.30 0.30 0.31 0.30 0.31 0.32 0.32 0.33 0.32 0.32 0.31 0.33 0.34 0.38 0.37 0.38 0.38 0.39 0.38 0.39 0.37 0.34 0.32 0.33 0.33 0.33 0.33 0.34 0.33 0.34 0.35 0.32 0.33 0.32 0.33 0.34 0.34 0.34 0.32 0.29 0.26 0.31 0.27 0.23 0.29 0.31 0.28 0.29 0.32 0.34 0.33 0.34 0.34 0.35 0.35 0.36 0.37 0.38 0.39 0.40 0.41 0.42 0.42
0.18 0.21 0.24 0.27 0.22 0.21 0.22 0.23 0.26 0.25 0.26 0.25 0.23 0.25 0.23 0.23 0.24 0.23 0.28 0.30 0.31 0.32 0.27 0.29 0.30 0.31 0.32 0.31 0.32 0.29 0.30 0.30 0.31 0.29 0.32 0.32 0.31 0.33 0.32 0.36 0.35 0.37 0.39 0.37 0.39 0.35 0.33 0.31 0.34 0.35 0.34 0.34 0.34 0.33 0.34 0.35 0.34 0.34 0.34 0.34 0.33 0.34 0.33 0.30 0.31 0.32 0.31 0.27 0.24 0.29 0.30 0.28 0.30 0.32 0.34 0.34 0.34 0.34 0.34 0.35 0.36 0.37 0.38 0.39 0.40 0.40 0.40 0.41
0.25 0.27 0.28 0.33 0.26 0.28 0.26 0.27 0.27 0.26 0.25 0.26 0.25 0.25 0.23 0.23 0.23 0.25 0.25 0.26 0.28 0.28 0.29 0.25 0.27 0.30 0.32 0.34 0.33 0.30 0.31 0.28 0.28 0.31 0.31 0.31 0.31 0.31 0.30 0.32 0.35 0.38 0.38 0.36 0.37 0.37 0.34 0.32 0.34 0.35 0.35 0.34 0.34 0.33 0.34 0.34 0.34 0.34 0.33 0.34 0.34 0.33 0.32 0.32 0.31 0.32 0.31 0.29 0.31 0.30 0.30 0.29 0.31 0.32 0.35 0.35 0.36 0.36 0.36 0.37 0.38 0.37 0.37 0.38 0.39 0.39 0.39 0.40
0.24 0.25 0.25 0.32 0.30 0.29 0.29 0.28 0.28 0.26 0.24 0.27 0.23 0.24 0.24 0.24 0.23 0.25 0.27 0.27 0.25 0.26 0.31 0.27 0.29 0.31 0.33 0.34 0.34 0.32 0.33 0.34 0.33 0.30 0.33 0.32 0.32 0.32 0.31 0.32 0.32 0.36 0.37 0.35 0.35 0.37 0.33 0.30 0.35 0.33 0.32 0.32 0.33 0.34 0.34 0.34 0.33 0.31 0.33 0.33 0.33 0.32 0.32 0.32 0.31 0.31 0.31 0.30 0.30 0.30 0.28 0.27 0.33 0.35 0.36 0.37 0.37 0.37 0.37 0.36 0.36 0.37 0.38 0.38 0.37 0.38 0.39 0.40
0.32 0.34 0.33 0.28 0.26 0.28 0.29 0.28 0.26 0.26 0.25 0.26 0.24 0.25 0.26 0.26 0.25 0.27 0.27 0.30 0.28 0.27 0.29 0.28 0.31 0.32 0.34 0.34 0.35 0.35 0.37 0.37 0.37 0.36 0.36 0.36 0.32 0.36 0.33 0.33 0.36 0.33 0.35 0.34 0.35 0.35 0.33 0.31 0.33 0.32 0.28 0.30 0.32 0.32 0.32 0.32 0.32 0.31 0.30 0.31 0.31 0.30 0.29 0.30 0.29 0.31 0.29 0.27 0.28 0.28 0.26 0.25 0.31 0.34 0.37 0.37 0.36 0.36 0.35 0.35 0.36 0.37 0.37 0.37 0.37 0.37 0.38 0.39
0.37 0.39 0.37 0.31 0.25 0.29 0.26 0.28 0.28 0.26 0.24 0.26 0.27 0.27 0.26 0.27 0.28 0.29 0.27 0.31 0.32 0.33 0.32 0.33 0.34 0.34 0.34 0.34 0.35 0.37 0.40 0.41 0.41 0.41 0.41 0.41 0.41 0.40 0.40 0.39 0.38 0.35 0.34 0.34 0.36 0.33 0.33 0.31 0.30 0.29 0.26 0.28 0.30 0.30 0.30 0.31 0.30 0.28 0.28 0.30 0.31 0.31 0.31 0.32 0.32 0.32 0.30 0.30 0.26 0.24 0.24 0.29 0.31 0.34 0.33 0.35 0.36 0.36 0.35 0.35 0.35 0.37 0.38 0.38 0.37 0.37 0.38 0.39
Wind_Speed
14 14 13 12 12 11 11 10 10 10 10 10 9 9 8 8 8 8 8 7 6 6 5 5 4 4 4 4 6 7 10 11 14 16 15 13 14 14 14 13 13 12 10 9 9 9 10 12 11 11 11 13 13 12 12 13 12 11 11 11 11 10 10 9 9 9 8 8 8 9 10 10 10 11 11 12 13 13 14 14 15 15 16 17 19 20 21 22
13 13 12 12 11 11 11 11 11 10 10 10 9 9 9 9 9 9 9 8 7 6 6 5 4 3 3 3 4 6 8 10 14 17 15 15 16 15 14 14 13 13 12 11 11 11 12 12 12 13 14 15 14 14 14 14 15 14 12 13 13 12 12 12 11 11 10 10 10 10 10 11 11 12 12 12 13 14 14 15 16 16 17 18 19 20 21 21
13 12 12 12 11 12 12 12 11 11 11 10 10 10 10 10 10 10 10 9 8 7 7 6 4 3 3 3 3 5 7 10 13 15 15 16 16 15 14 14 14 14 14 14 14 14 15 14 15 17 17 17 16 16 16 15 15 15 14 15 15 14 14 13 13 13 12 12 11 12 11 12 13 13 13 13 13 14 14 15 16 17 18 19 20 21 21 21
13 12 12 13 13 13 12 12 12 11 11 11 11 11 11 11 11 11 10 10 10 10 10 9 8 5 5 5 4 6 7 10 13 13 14 16 16 15 15 14 14 15 15 16 16 17 17 17 18 18 18 17 17 17 18 17 16 16 16 17 16 15 16 15 14 14 13 13 13 13 12 13 14 14 14 15 14 14 15 15 16 17 19 20 20 21 20 20
13 14 14 14 14 13 13 12 12 12 12 12 12 12 12 12 12 11 10 10 10 10 11 12 13 12 9 7 5 5 6 9 12 12 14 16 16 16 16 15 15 15 16 16 17 17 17 17 18 18 18 17 17 17 18 18 17 17 18 19 17 16 16 16 15 15 15 14 14 14 14 15 15 15 16 17 16 16 17 17 17 18 18 19 20 20 20 20
15 15 15 14 14 13 13 12 12 12 13 13 13 13 13 12 11 10 9 9 9 9 10 12 13 15 15 14 11 10 10 10 10 13 15 16 16 17 17 17 17 16 17 18 18 18 18 18 18 18 18 18 18 18 18 18 17 17 19 19 18 17 17 16 15 16 16 16 16 16 16 16 15 16 17 18 18 18 18 18 18 18 19 19 20 20 20 20
15 15 15 14 14 13 13 13 13 13 13 13 13 12 12 11 10 9 9 10 10 9 9 10 11 11 13 15 15 17 17 14 12 14 15 16 17 18 18 18 18 17 18 19 18 19 19 21 21 18 18 19 19 20 20 21 20 19 19 18 18 18 18 17 16 17 16 17 17 16 16 16 17 17 18 19 19 19 19 19 19 19 19 19 20 20 20 21
15 15 15 14 14 14 14 14 13 13 12 12 12 11 10 10 9 9 10 11 11 10 9 9 9 8 9 11 14 17 17 15 14 15 16 17 19 19 19 19 18 18 18 18 17 17 18 20 20 17 18 18 18 19 19 21 21 20 19 18 18 18 18 18 17 17 18 18 18 16 17 17 18 18 18 20 21 20 20 20 20 20 20 20 21 21 21 21
15 15 15 15 15 14 14 14 13 12 12 11 11 10 9 9 9 9 10 11 12 13 12 11 11 11 12 12 15 17 15 15 15 16 17 18 20 20 20 19 18 19 19 19 18 18 17 17 17 17 18 18 17 17 16 17 18 19 18 18 18 18 18 18 18 18 18 19 18 17 17 18 18 18 19 21 22 21 21 20 21 21 22 22 22 22 21 21
15 15 15 15 14 13 13 12 12 11 11 10 10 9 9 9 9 10 10 11 12 14 16 16 16 16 16 16 17 17 15 15 16 17 17 18 18 19 20 20 19 19 19 19 20 20 18 18 18 18 19 18 17 18 17 17 17 17 18 19 19 19 19 19 19 18 18 19 20 18 18 18 18 19 20 22 23 23 22 22 22 23 24 24 23 23 22 22
14 14 14 14 13 12 12 11 11 10 10 9 9 9 10 10 10 11 11 12 12 13 14 16 18 19 20 20 20 18 15 15 16 16 16 16 17 18 19 20 19 20 20 19 19 18 18 17 17 16 16 17 17 19 19 18 17 17 17 17 18 17 19 20 19 19 17 18 20 18 17 18 18 20 22 23 23 23 23 23 24 25 25 25 25 24 23 22
14 13 13 13 12 12 11 11 10 10 10 10 10 10 11 11 11 12 12 14 15 15 14 14 15 16 20 22 20 17 15 15 15 15 15 15 16 17 18 18 19 20 20 19 18 17 16 14 14 15 15 15 15 17 17 16 16 16 15 16 15 15 19 20 19 18 17 17 20 18 16 18 20 21 22 23 23 22 22 23 25 26 26 26 26 26 25 24
13 13 13 13 12 12 12 11 11 11 11 11 12 12 12 13 13 14 14 14 15 17 17 17 16 16 18 20 18 16 15 15 15 15 15 15 15 16 16 17 18 19 19 19 19 18 17 16 17 18 16 15 14 15 15 15 15 15 15 15 15 14 17 19 19 19 17 17 19 17 16 19 20 21 22 22 22 22 22 23 25 26 26 27 27 26 26 25
13 13 13 14 14 13 13 13 13 13 13 13 13 13 14 14 14 15 16 16 15 16 17 18 18 18 19 18 16 16 15 14 16 16 15 15 15 15 15 16 17 17 17 17 18 17 17 17 19 19 17 16 15 15 15 15 15 15 15 15 15 15 16 17 18 19 17 16 18 17 16 18 19 20 22 22 22 22 23 24 25 26 26 27 27 27 27 27
15 15 15 15 15 15 15 15 14 14 15 15 15 15 15 15 15 15 16 17 16 16 15 16 16 17 19 17 15 15 15 15 16 16 16 15 15 14 14 14 15 15 15 16 16 16 15 15 17 17 15 15 14 14 14 14 15 15 14 15 16 16 16 16 17 19 18 16 17 16 16 17 18 20 21 21 21 22 22 23 25 26 27 27 27 27 28 27
17 17 17 17 17 17 16 15 15 15 16 16 16 17 16 15 15 16 16 17 17 17 16 16 15 16 17 15 14 15 15 15 15 16 16 15 15 14 13 13 13 14 14 14 14 14 15 15 16 16 15 13 12 13 13 14 15 15 15 15 16 16 16 15 15 18 19 16 16 17 16 17 18 20 21 21 21 22 22 23 24 25 26 27 27 27 28 28
19 18 18 17 17 17 16 16 16 16 16 17 17 17 18 17 16 15 15 15 17 17 17 16 15 16 16 14 13 14 15 15 14 15 15 15 15 14 13 12 12 13 12 13 13 13 14 14 13 14 15 14 12 11 11 14 14 14 15 15 15 15 15 16 15 18 20 17 17 17 16 17 18 19 20 20 21 21 22 23 24 25 25 26 27 27 28 28
18 18 17 16 16 16 16 16 15 15 17 18 18 18 19 19 18 17 15 14 14 14 15 15 13 14 15 14 13 13 14 14 14 14 14 14 14 14 14 12 11 11 11 11 13 12 11 11 11 11 14 14 13 13 12 13 13 13 14 14 14 14 15 16 16 18 20 18 17 18 16 17 18 19 20 20 21 21 22 22 23 24 25 26 27 27 28 28
17 17 16 15 15 15 15 15 15 15 16 18 17 17 17 18 20 20 18 16 15 13 13 14 14 14 13 13 12 12 13 14 14 14 14 13 13 13 14 13 12 11 11 11 12 12 10 9 10 10 12 13 13 14 13 12 12 12 13 13 13 14 14 15 16 17 18 17 17 18 16 17 18 19 20 20 21 20 21 22 22 23 24 25 26 27 28 28
17 16 16 15 15 15 15 15 15 15 16 16 15 14 15 15 16 17 19 19 18 16 15 14 15 15 13 13 12 12 13 14 15 15 15 13 12 12 13 12 12 13 12 10 10 11 9 9 11 11 11 12 12 13 13 12 11 11 11 12 12 13 13 14 14 16 17 15 16 17 16 16 17 18 20 20 20 20 21 21 22 23 24 25 26 26 27 28
16 16 16 15 15 15 15 16 16 16 16 15 14 15 14 14 14 14 16 17 17 16 16 15 14 14 13 13 14 13 12 13 15 17 16 13 11 11 12 12 11 12 12 9 9 9 9 10 11 10 10 10 11 11 11 11 11 11 11 11 11 12 13 13 13 15 16 15 16 18 17 15 16 17 18 20 20 20 21 21 21 22 23 24 25 26 27 27
16 15 15 15 15 15 15 16 17 17 17 17 17 18 17 16 16 15 15 15 15 15 15 15 14 13 12 12 14 13 12 13 14 16 17 14 13 12 12 13 12 11 11 9 8 8 10 12 11 9 8 9 10 10 10 11 11 11 10 10 10 12 12 12 12 14 16 15 16 18 16 14 15 16 17 18 19 19 20 20 20 21 22 23 24 25 26 27
15 15 15 14 14 14 15 15 16 17 18 18 19 18 17 17 16 15 14 14 14 13 13 13 13 13 12 11 13 13 13 14 13 15 16 14 13 13 12 13 12 11 11 11 10 10 11 11 10 9 8 8 10 11 10 10 10 11 11 10 10 11 11 11 12 14 15 15 15 16 15 14 14 15 16 17 18 18 19 19 19 20 21 22 23 24 25 26
14 14 14 14 13 14 14 14 15 15 16 17 18 16 15 14 13 13 13 13 12 12 11 11 11 12 12 11 11 11 13 13 12 13 15 13 12 11 11 11 11 11 12 12 13 13 12 10 10 8 7 8 9 11 11 10 10 10 10 10 10 11 11 10 12 13 13 12 14 16 14 13 13 14 15 16 17 18 18 19 19 20 21 21 22 24 24 25
14 14 14 13 13 13 13 13 13 14 14 14 14 13 12 11 10 10 11 11 10 10 10 9 9 10 10 9 9 9 10 12 12 12 13 13 12 10 10 10 10 11 10 10 12 13 12 10 9 8 8 9 9 10 11 10 10 9 9 9 10 10 10 10 11 12 11 11 14 16 13 12 13 13 14 16 17 18 18 19 19 20 21 21 22 24 24 25
14 13 13 13 13 12 12 12 12 11 11 10 9 9 9 8 8 8 8 9 9 8 8 8 8 9 9 9 9 7 7 10 11 12 13 13 12 10 10 10 11 11 9 9 10 11 11 10 10 10 9 9 9 9 10 10 10 10 10 9 9 10 10 10 11 11 11 11 13 14 14 12 12 12 13 15 17 17 18 18 19 20 20 21 22 23 24 24
13 13 12 13 12 12 11 11 10 10 9 8 7 7 6 6 7 6 6 7 7 7 8 7 7 8 9 10 10 7 7 8 9 12 13 13 12 10 10 11 11 11 10 9 10 11 11 10 11 11 9 9 10 10 10 11 11 10 10 10 9 9 9 10 10 10 11 12 11 13 14 12 11 12 12 15 16 17 17 17 18 19 20 21 22 23 24 24
13 12 12 12 12 12 11 10 10 9 8 8 7 6 6 6 5 5 5 6 6 6 7 7 7 8 8 9 11 10 9 9 9 12 13 12 12 12 11 11 11 11 10 9 10 11 11 11 12 12 11 11 11 11 11 11 11 11 11 11 10 9 9 9 10 10 11 11 10 12 14 12 10 11 12 14 15 16 17 17 17 18 20 21 22 22 23 24
12 12 11 11 11 12 11 10 9 9 8 7 7 6 5 5 5 5 6 5 5 6 6 6 6 7 7 8 10 11 10 9 9 11 12 12 12 12 12 11 11 12 12 11 11 11 11 12 11 11 12 12 11 11 11 10 11 11 10 11 10 9 9 9 10 11 11 11 10 12 14 13 11 11 11 13 14 16 17 17 17 17 19 20 21 22 22 23
11 11 11 10 9 9 9 9 8 8 7 7 6 6 6 5 5 5 5 5 5 5 5 6 6 6 7 7 8 10 9 9 9 10 12 13 13 13 11 10 10 11 12 13 12 11 11 11 11 11 12 11 11 11 11 10 11 11 10 11 10 9 9 9 10 11 10 10 9 11 14 13 11 11 11 13 14 15 16 16 16 16 17 19 20 21 22 22
10 10 10 9 9 8 7 8 7 7 6 6 6 6 6 5 5 5 5 4 5 5 5 6 6 6 7 6 7 8 8 9 10 10 11 11 12 13 11 10 10 10 10 12 11 10 11 11 11 11 12 12 10 10 10 10 11 11 11 12 11 10 9 9 10 10 10 10 9 11 14 13 11 11 12 13 13 14 14 15 16 16 17 18 19 20 21 22
8 9 10 9 8 8 7 7 6 6 6 6 6 5 5 5 5 5 4 4 4 4 5 5 5 6 6 5 6 7 7 7 8 9 9 9 10 11 11 12 10 9 10 12 10 9 10 12 12 11 11 13 12 11 11 10 11 12 12 12 12 10 10 10 10 10 10 11 10 12 14 12 11 12 12 12 13 14 14 15 16 16 16 17 18 20 21 21
7 7 8 9 8 7 7 7 6 5 5 5 5 5 5 5 5 5 4 4 4 4 4 4 5 5 5 5 6 6 6 6 7 8 7 7 8 9 11 13 12 10 10 11 11 10 9 10 13 12 11 14 14 12 12 11 13 14 14 14 13 11 12 12 11 11 11 12 11 12 13 12 12 12 12 12 14 14 15 15 15 16 17 17 18 19 20 21
6 6 7 7 8 7 6 6 5 5 5 5 5 5 6 6 5 5 4 4 4 4 4 4 4 4 5 5 6 5 5 6 7 7 7 7 8 9 10 12 13 11 10 10 11 11 10 10 13 13 12 13 13 13 13 12 13 14 13 13 13 12 12 12 12 12 13 14 14 12 12 12 13 13 13 13 14 15 16 16 16 16 16 17 18 19 19 20
5 5 5 6 7 6 6 5 5 4 4 4 5 5 5 5 4 4 4 4 4 4 4 4 4 4 5 5 5 5 5 5 6 7 7 8 8 9 10 11 13 12 10 10 11 11 10 10 12 13 12 13 12 12 12 12 12 13 13 13 13 12 12 12 12 12 13 14 13 11 11 13 14 13 13 14 15 16 16 16 16 17 17 17 18 19 19 20
3 4 4 4 5 5 5 5 4 4 4 4 5 5 4 4 3 4 4 4 4 4 3 3 4 4 4 4 4 5 4 5 6 6 7 7 7 9 9 10 12 12 12 11 11 11 10 9 11 12 12 12 12 12 12 13 12 13 13 13 13 12 13 13 12 12 12 12 12 12 13 14 14 12 13 14 15 16 16 16 16 17 17 18 18 19 19 19
3 3 3 4 5 5 5 4 4 3 3 4 4 4 4 4 3 3 4 4 4 3 3 3 4 4 4 4 5 5 5 5 5 6 6 6 7 8 9 9 10 11 11 11 10 11 10 9 11 12 12 12 12 12 12 13 13 13 13 13 12 12 13 14 13 13 12 12 12 13 14 16 14 12 13 14 15 16 16 16 16 17 18 18 18 19 19 19
2 2 2 3 4 4 4 3 3 3 3 4 4 3 3 3 3 3 3 4 3 3 4 4 4 4 4 4 5 6 6 6 6 6 6 6 6 7 9 9 10 10 11 11 10 11 10 10 11 12 12 13 12 11 11 12 14 14 13 13 13 13 13 14 14 14 14 14 14 13 15 15 13 12 14 14 14 16 17 16 16 17 17 18 18 19 20 20
1 1 1 3 4 4 3 3 2 2 3 3 3 2 2 3 3 3 3 3 3 3 4 4 4 4 4 4 5 5 6 6 6 6 6 7 7 7 8 9 9 10 11 11 11 11 10 10 11 12 12 13 12 12 12 12 13 14 13 13 14 14 14 15 14 13 14 15 15 15 15 14 13 14 15 14 15 16 17 17 17 18 18 18 18 19 20 20
0 0 0 2 4 3 3 2 2 2 3 2 2 2 2 2 2 2 2 3 3 3 3 3 3 4 3 4 5 5 6 6 6 6 6 7 7 7 7 8 9 10 11 10 11 11 11 11 12 13 12 12 12 13 13 13 13 14 14 14 14 14 14 14 13 13 14 14 15 15 16 15 15 15 14 15 16 17 18 19 19 19 19 19 19 20 21 21
1 1 1 2 3 3 2 2 3 3 2 1 1 1 1 1 1 2 2 3 4 4 4 4 4 4 4 4 5 5 5 5 5 6 6 6 7 7 7 8 9 10 10 10 11 12 11 11 13 14 12 12 12 13 14 14 14 15 15 15 15 15 15 14 14 14 14 14 14 15 17 18 16 15 16 18 18 19 19 20 20 20 21 20 20 21 21 21
1 1 2 3 4 2 1 2 2 2 1 1 1 1 1 1 2 2 3 3 4 4 4 4 4 4 4 5 5 5 5 5 5 6 6 6 7 8 8 8 9 10 11 11 11 13 12 11 13 14 13 12 12 12 13 14 15 16 16 16 16 15 15 14 14 14 14 15 15 14 16 17 17 17 18 20 21 21 21 21 21 22 22 22 22 22 21 21
2 3 3 3 4 3 1 1 2 2 2 2 2 2 2 3 3 3 3 4 4 4 4 4 5 5 5 5 5 5 6 6 5 6 7 7 7 8 8 8 9 10 11 11 12 12 12 12 14 15 13 12 11 12 13 15 15 16 16 15 16 16 15 15 15 15 15 14 14 14 15 16 18 19 20 22 22 23 22 21 22 22 22 23 23 23 22 21
4 4 4 4 4 4 3 3 3 3 3 3 3 3 4 4 4 4 4 5 5 5 5 5 5 5 5 5 5 5 6 6 6 7 7 7 8 8 8 9 10 10 11 12 12 13 13 13 15 15 14 12 12 12 13 15 16 17 16 15 15 15 15 15 15 15 15 15 13 13 15 18 19 20 22 22 23 23 23 21 21 22 23 23 24 23 23 22
5 5 5 5 5 4 4 4 4 4 4 4 4 4 5 5 5 5 5 5 5 6 5 5 6 5 5 6 6 7 7 7 7 7 8 8 8 9 9 10 10 11 11 12 13 13 14 14 15 15 14 14 15 15 16 17 17 17 16 15 15 14 14 14 15 15 16 15 13 13 17 20 21 20 21 21 21 23 23 22 22 22 24 24 24 24 23 23
7 6 6 6 6 5 4 5 5 4 5 5 5 6 6 5 6 6 6 6 6 6 6 6 6 6 6 7 7 7 8 9 8 8 8 8 8 9 10 10 11 11 11 12 13 13 14 14 14 14 15 16 17 17 16 17 18 18 17 15 15 15 14 15 16 16 16 15 15 17 20 23 23 22 22 22 22 22 23 23 23 24 25 25 24 24 23 23
8 8 8 8 7 6 5 6 6 5 6 7 6 6 6 6 7 7 7 7 7 7 7 7 7 7 7 7 7 8 8 9 9 9 9 9 9 10 11 11 12 11 11 12 14 13 14 14 13 14 16 17 18 19 17 17 19 20 19 17 15 14 14 15 17 17 16 16 18 19 20 22 24 24 25 24 24 23 24 25 24 24 25 25 24 24 24 24
9 9 9 9 8 8 7 8 7 6 7 8 8 8 8 8 8 8 9 8 8 9 9 8 9 9 8 8 8 8 8 9 10 9 9 10 10 10 11 12 12 12 12 13 14 14 15 15 14 14 16 18 19 19 18 18 19 20 20 19 17 14 14 16 17 16 15 16 20 21 21 23 25 26 26 25 25 25 26 27 26 25 25 25 24 24 25 25
10 9 9 9 9 9 9 9 8 8 8 9 9 9 9 10 10 10 9 9 10 10 10 10 10 9 8 9 9 8 9 9 10 10 10 10 10 11 12 12 12 12 13 13 14 15 15 15 15 15 17 19 18 18 18 18 19 20 20 18 17 16 15 16 17 16 16 19 23 23 24 26 26 26 26 26 26 27 27 27 27 26 25 25 25 25 25 26
11 11 11 10 9 9 9 10 9 9 10 10 11 11 11 11 11 11 11 10 10 10 10 10 10 9 8 9 9 9 10 9 10 10 10 10 11 12 12 12 11 12 13 13 15 15 15 16 16 16 18 18 16 16 17 18 20 21 19 16 15 15 15 16 18 17 18 21 22 23 25 26 25 25 24 24 26 26 26 27 26 26 25 26 26 26 26 26
12 12 12 11 11 11 11 10 10 11 11 11 11 11 12 12 12 11 11 12 11 10 10 10 9 8 9 9 10 11 10 9 9 10 9 10 11 11 12 12 12 12 13 14 14 15 16 17 16 17 18 17 16 17 19 20 20 19 17 16 15 14 16 16 16 16 17 18 19 20 22 23 23 23 22 23 24 24 25 26 26 26 26 26 26 27 27 27
13 13 13 13 12 12 12 11 11 11 11 11 11 11 11 12 12 11 11 11 11 11 11 10 8 8 9 10 11 11 10 9 10 10 10 11 11 11 12 12 12 13 13 13 14 15 16 16 17 17 18 18 18 19 21 21 18 15 16 18 15 14 16 17 16 16 17 18 19 20 21 22 23 23 23 23 23 23 24 25 25 26 26 27 27 28 28 28
Wind_Direction
113 114 114 113 111 109 106 104 102 101 100 100 99 98 97 96 96 98 96 89 80 70 64 59 60 63 63 61 53 51 43 41 41 40 40 26 15 15 15 19 23 25 27 34 42 46 46 45 45 47 54 55 52 50 49 46 43 42 42 47 49 43 40 32 26 22 16 14 5 357 347 342 342 334 328 320 321 320 316 318 316 312 310 309 308 307 307 306
111 111 112 112 110 108 106 103 102 101 100 99 98 99 99 99 98 97 93 84 75 65 57 49 51 63 72 75 62 55 46 45 46 42 38 27 21 22 25 29 32 34 39 49 54 56 59 57 56 60 64 63 56 54 55 50 47 47 49 54 53 50 49 42 40 36 29 28 21 14 4 359 357 348 341 335 335 332 326 324 321 317 315 313 312 311 310 308
110 110 110 109 109 107 105 103 102 101 100 99 99 101 101 100 98 94 86 76 68 60 51 43 47 65 81 79 71 61 48 48 49 40 32 27 26 28 31 36 39 44 52 61 65 68 72 71 70 69 69 64 57 58 57 51 51 50 52 58 58 59 58 51 47 43 37 34 29 26 18 13 10 0 354 349 346 346 343 336 328 325 322 318 317 316 313 311
108 108 107 107 107 106 104 103 101 101 100 99 99 101 102 100 96 89 81 73 67 62 58 55 61 78 98 96 88 76 61 61 55 38 31 31 32 36 39 45 49 56 64 70 73 76 77 75 72 70 69 63 58 60 55 50 55 53 52 60 63 61 59 53 47 46 42 38 34 32 27 23 19 11 7 359 356 359 355 347 338 333 329 325 324 320 317 315
107 106 105 104 104 104 103 103 102 101 100 99 100 102 102 99 94 87 79 71 65 65 67 67 70 77 85 89 94 87 77 73 55 37 36 38 41 45 48 54 59 66 72 76 76 76 76 73 72 68 65 61 57 59 56 53 58 57 53 59 62 56 55 52 45 44 42 38 36 34 32 28 25 22 17 10 9 7 0 354 347 342 337 334 330 326 323 322
105 103 102 102 102 103 103 103 103 102 100 100 100 101 100 98 92 84 73 62 61 70 77 79 79 78 78 78 82 84 87 84 58 43 44 45 49 52 56 61 66 71 75 76 73 73 73 70 70 66 64 63 59 60 59 56 58 60 58 57 56 52 53 50 44 43 39 36 35 33 32 29 27 29 23 17 16 11 4 359 354 349 345 339 334 332 331 329
103 102 101 101 102 102 103 103 103 103 102 102 102 101 99 95 86 76 66 58 60 70 82 90 88 85 82 78 77 80 84 82 64 54 52 52 57 58 61 65 66 72 73 70 69 70 70 69 71 68 67 66 62 64 64 61 60 62 62 58 55 52 51 47 43 44 40 36 34 31 32 29 28 29 25 22 18 12 8 4 359 355 350 344 341 340 338 335
100 100 100 100 101 102 102 103 103 103 103 104 104 102 98 92 83 75 67 61 61 68 82 93 88 86 89 85 84 82 79 74 65 62 60 60 61 61 64 64 64 70 70 66 67 70 68 69 72 67 66 66 65 67 66 62 59 60 62 60 55 51 49 46 44 45 41 37 35 33 34 31 29 28 26 24 18 14 11 8 5 1 356 352 349 346 343 341
98 98 99 100 101 102 102 102 102 102 103 104 103 101 96 89 83 77 72 70 70 72 80 89 90 91 95 94 92 87 78 73 69 68 66 64 63 62 65 64 64 68 69 66 66 69 68 69 70 69 70 68 65 64 59 56 56 58 62 60 56 51 47 45 45 44 39 36 33 35 36 32 30 28 28 25 19 17 15 13 12 7 3 0 357 352 348 346
98 98 99 100 101 102 102 101 100 101 102 102 101 98 95 90 85 81 80 80 82 84 84 87 90 90 91 90 91 90 82 75 72 69 67 65 64 63 64 64 64 66 68 67 65 66 68 72 73 73 72 66 60 56 52 56 61 63 64 61 56 53 48 44 45 42 38 36 32 33 36 33 30 28 27 23 20 21 19 19 17 13 10 7 4 360 355 352
98 99 100 101 101 102 102 101 100 99 98 98 98 97 95 92 89 85 84 83 86 93 92 89 88 86 86 86 88 90 83 75 71 69 68 66 66 65 63 62 62 64 67 67 65 64 67 70 72 69 64 62 60 57 55 58 65 66 63 60 54 52 48 43 42 39 36 37 32 32 36 35 33 29 25 21 20 22 21 20 19 16 14 12 10 7 3 359
98 99 100 100 101 102 102 100 99 97 97 96 97 98 97 94 92 89 89 88 86 88 91 93 92 90 87 83 85 86 80 73 69 68 69 68 67 66 64 62 62 63 66 67 64 62 63 62 65 64 61 64 62 58 59 58 61 59 53 52 51 51 48 41 38 36 36 38 32 32 36 35 34 29 24 21 21 21 21 21 20 18 17 15 13 12 10 7
98 98 100 100 100 100 99 98 98 98 98 98 98 98 99 96 93 91 91 92 90 88 89 91 94 95 91 85 83 82 77 72 69 69 69 67 68 68 65 63 62 62 63 66 65 63 63 63 68 68 64 62 59 59 63 58 55 53 46 47 48 48 45 40 35 32 35 38 32 32 35 35 34 29 25 24 23 22 21 21 20 18 17 17 16 14 14 12
97 98 99 99 99 97 97 96 96 97 97 98 97 98 100 98 95 92 90 91 94 94 92 89 90 90 90 90 85 77 74 73 70 68 66 64 66 68 65 63 62 60 61 65 66 64 63 65 69 69 62 60 61 63 63 56 51 50 46 45 45 45 45 42 36 31 35 37 30 31 35 35 33 30 27 25 24 23 22 20 19 18 17 17 17 16 16 15
96 98 99 99 97 95 94 93 93 95 96 96 96 97 99 99 97 94 92 89 90 95 95 91 90 89 89 90 84 74 72 72 66 63 64 62 63 64 62 60 60 59 60 63 65 64 62 63 64 62 58 58 59 61 59 55 51 46 46 46 43 44 45 43 39 34 33 30 27 30 34 35 33 29 27 26 25 23 21 20 19 18 16 17 18 17 16 16
96 98 99 98 95 93 91 90 92 94 96 97 95 94 96 100 100 97 95 92 90 92 95 92 89 90 91 86 78 71 68 67 62 61 63 61 60 59 57 59 59 58 60 61 62 62 59 61 61 57 55 54 52 53 54 54 52 46 45 47 42 40 41 40 41 36 28 26 30 31 32 34 31 28 26 26 25 22 20 20 19 18 17 17 18 17 17 17
96 98 98 96 93 91 89 89 91 94 97 99 98 95 94 96 98 98 99 97 93 91 90 89 89 91 87 81 76 69 64 63 60 59 60 59 58 54 53 57 56 55 59 59 58 57 55 56 59 57 53 49 48 49 51 48 48 46 44 47 44 39 37 36 39 33 24 26 32 30 32 33 28 26 25 25 24 21 20 19 18 18 18 18 18 18 18 18
94 96 95 93 91 89 86 87 90 94 99 102 102 100 96 92 92 95 98 99 98 94 88 82 86 93 84 74 73 67 61 59 58 56 55 56 56 53 52 53 51 52 57 56 50 49 54 56 59 61 51 44 44 45 48 46 44 45 42 44 44 40 39 35 35 31 24 25 30 29 31 30 26 25 25 25 23 20 20 19 18 18 19 20 19 19 19 19
91 91 91 89 88 88 85 85 89 97 105 107 105 102 99 95 91 89 87 90 93 93 91 80 80 93 85 70 69 65 61 59 56 53 51 51 53 53 53 51 51 54 54 51 44 42 51 57 53 51 42 37 37 38 45 46 44 47 44 41 40 37 39 35 32 32 26 25 29 28 27 25 23 24 24 23 22 21 21 21 20 21 21 21 21 20 20 20
87 88 88 87 88 89 88 85 87 99 109 110 106 103 103 100 94 88 82 84 88 89 91 86 82 87 81 70 65 63 63 61 56 50 45 48 50 51 50 48 52 54 50 45 42 41 47 55 48 41 36 32 32 34 40 42 42 47 45 41 38 34 37 36 33 32 26 25 30 26 22 22 22 23 23 22 22 23 23 23 23 22 22 22 21 20 21 21
86 86 86 87 88 90 90 87 87 96 107 110 106 103 104 101 99 99 92 87 87 84 84 83 82 81 76 69 62 61 65 61 55 47 42 45 50 49 45 44 48 47 42 40 43 41 45 51 46 39 36 32 33 35 36 38 38 41 41 38 36 33 33 31 30 28 24 26 30 25 19 21 23 22 22 21 22 24 24 22 22 22 21 21 20 20 20 21
84 86 86 87 89 91 92 92 90 95 103 106 104 101 101 100 99 100 98 94 87 80 79 78 77 76 74 69 60 58 61 55 49 42 40 43 49 52 48 47 48 43 37 37 39 40 45 48 42 36 38 36 36 34 31 34 34 34 35 33 32 30 24 25 28 25 23 25 26 22 18 21 23 21 21 22 22 23 23 22 22 21 20 20 20 19 20 20
83 85 85 86 90 93 95 96 95 97 101 103 102 100 99 99 97 95 94 95 88 78 76 74 72 68 67 66 57 53 57 53 44 37 35 40 48 51 49 47 48 43 38 37 39 43 46 44 37 35 36 33 33 31 29 32 30 29 29 27 27 25 20 24 27 21 19 23 21 17 17 20 23 22 21 22 22 21 22 22 22 22 21 19 19 19 19 19
83 84 85 85 90 95 97 99 101 101 102 102 101 100 100 97 95 93 90 92 89 79 74 73 70 64 61 60 53 53 57 53 44 35 32 38 44 46 46 46 46 45 41 40 46 52 50 39 33 35 35 29 28 28 25 23 27 27 23 20 20 17 13 14 15 11 14 22 17 13 16 21 23 22 21 22 20 20 21 21 21 22 21 19 18 19 19 19
82 85 85 83 89 97 100 100 103 106 107 106 104 101 98 94 93 92 89 88 84 75 71 71 68 61 55 50 48 55 58 52 44 35 33 37 39 42 48 44 40 42 41 39 46 51 46 36 31 33 33 29 25 25 21 15 19 22 16 13 11 8 4 3 5 6 10 18 16 12 15 21 22 18 17 19 17 17 20 19 19 20 19 18 18 18 18 17
82 84 85 82 86 97 102 101 103 109 111 110 109 103 94 89 91 91 89 86 77 65 61 66 65 56 49 42 42 55 58 49 41 36 36 38 38 44 48 40 39 44 44 43 45 45 40 35 33 31 31 28 24 24 21 12 10 14 14 8 2 359 358 1 4 4 6 9 9 9 10 12 13 13 14 16 13 12 15 16 16 18 17 17 17 16 16 16
81 83 85 82 83 93 101 103 105 108 108 109 111 106 95 90 92 90 89 84 71 60 57 59 61 55 49 43 41 56 55 39 38 39 38 38 39 45 46 39 38 41 41 43 44 40 34 32 31 28 27 26 22 20 18 11 7 10 11 1 352 352 356 1 1 1 3 359 359 6 6 1 3 11 14 12 8 7 11 13 15 16 15 15 14 14 14 14
79 81 85 84 83 88 96 101 102 102 102 108 109 103 96 90 92 90 90 87 68 60 60 59 62 56 53 48 46 57 54 38 42 39 34 38 40 45 49 42 39 40 38 39 43 40 32 29 27 22 22 23 19 14 10 8 6 10 9 359 354 355 357 357 356 359 359 353 356 3 0 357 359 7 10 7 4 4 7 10 12 13 13 12 11 11 12 12
77 78 83 87 86 85 90 93 95 98 99 104 103 99 95 88 91 89 86 88 71 66 65 58 60 50 46 50 47 50 48 44 47 36 33 41 39 42 49 43 42 44 40 38 43 41 33 29 24 20 21 19 13 9 8 7 7 9 8 1 0 358 353 351 350 353 352 349 355 358 357 356 355 358 3 2 1 0 3 6 7 9 9 9 8 9 11 11
76 75 77 84 86 83 85 85 88 95 96 97 97 94 91 87 90 87 80 83 74 67 60 53 55 42 38 50 47 42 42 43 41 34 39 43 38 41 47 40 38 41 41 40 41 37 31 27 23 22 20 12 5 8 9 8 8 8 3 358 357 354 351 347 346 347 345 347 356 356 355 355 352 354 356 357 359 359 359 0 2 3 5 6 7 8 9 10
76 74 73 77 81 79 82 82 84 92 93 94 97 92 88 81 78 86 86 83 75 63 56 55 54 45 43 51 46 37 39 41 35 33 38 39 34 35 37 33 31 33 35 35 34 29 26 24 20 18 16 8 4 8 9 7 6 3 359 357 355 353 351 346 347 348 344 348 354 351 350 347 343 349 352 352 355 355 353 354 356 357 359 1 4 5 7 7
77 76 72 72 76 74 76 81 82 89 91 93 97 90 86 76 68 80 86 77 71 60 57 57 52 48 45 48 45 33 34 39 36 38 38 33 32 32 33 29 23 23 28 24 22 22 22 20 14 11 13 9 4 5 9 8 4 1 0 358 354 353 353 350 352 349 342 346 349 344 344 340 333 340 347 347 348 348 347 348 349 351 352 354 357 360 2 3
78 79 74 69 70 70 73 78 79 86 90 92 94 82 77 78 73 79 82 69 65 60 59 56 48 46 38 39 42 32 32 34 29 34 35 27 28 33 35 30 20 17 21 18 15 15 16 15 10 9 10 7 5 6 8 6 3 3 3 0 357 357 355 352 350 346 342 344 342 339 340 337 334 339 343 343 346 348 346 344 343 345 345 346 349 353 356 358
78 80 78 69 66 67 68 71 73 82 90 92 90 75 71 76 78 80 79 71 67 61 58 52 44 43 40 40 36 23 31 36 23 22 22 19 24 25 26 25 20 16 14 15 14 11 10 9 8 9 6 3 7 9 5 0 1 3 1 359 2 4 356 350 348 345 342 339 336 337 339 337 339 343 342 341 345 345 342 341 340 340 341 343 345 347 349 352
80 80 80 68 61 60 59 62 68 79 92 90 79 72 74 78 83 84 77 71 72 66 58 50 42 42 39 36 33 23 27 29 22 18 16 17 21 19 14 13 13 12 9 11 12 7 6 7 8 9 5 3 6 5 1 358 360 2 359 357 3 4 356 351 349 345 341 338 336 339 338 334 337 341 342 339 338 338 338 337 336 335 338 342 342 343 346 349
83 82 78 62 51 49 48 53 62 74 91 86 70 68 72 75 80 79 70 66 67 65 61 49 34 36 34 25 28 29 22 17 14 13 15 16 17 15 11 8 8 9 9 10 10 6 3 6 8 7 5 6 5 3 2 1 360 360 360 2 3 359 355 354 352 348 345 341 340 341 336 334 337 340 343 340 336 336 336 334 333 332 335 338 339 342 345 347
83 82 77 53 38 35 36 42 58 75 84 75 68 70 69 69 73 69 61 58 59 54 52 40 24 26 26 18 18 15 10 11 6 7 11 9 9 10 7 6 7 7 7 6 8 7 360 359 6 4 3 7 3 360 3 3 0 359 2 5 3 357 357 355 350 349 349 345 344 343 336 335 339 340 340 340 337 337 336 334 332 330 332 335 337 340 343 344
84 85 81 43 25 22 25 36 58 77 77 69 71 77 73 71 72 66 58 54 53 45 39 34 23 19 15 14 14 3 358 4 5 7 9 4 5 4 360 2 5 5 3 359 2 5 357 354 3 1 358 2 1 356 359 4 4 4 5 4 358 354 355 354 351 350 349 346 344 344 340 337 337 338 339 339 337 337 337 337 334 332 332 333 335 338 340 342
100 107 92 31 17 22 26 37 61 74 74 70 75 83 73 70 67 61 51 41 35 28 29 26 16 13 11 9 10 0 357 3 4 3 3 2 2 358 355 358 360 360 359 357 359 1 356 354 358 358 355 354 355 353 353 357 0 360 358 357 356 354 352 352 353 350 346 344 344 345 346 343 340 340 340 338 336 335 335 335 334 333 330 330 331 335 337 339
196 180 148 7 8 18 23 38 57 56 61 62 66 73 59 56 55 42 29 19 12 9 11 12 7 8 4 357 356 358 359 359 358 358 359 359 357 355 355 353 353 356 356 357 358 356 354 352 351 353 352 348 351 352 349 349 350 349 349 350 352 352 350 349 351 349 345 343 344 344 341 340 342 343 340 338 338 337 335 333 331 330 328 326 328 331 333 335
230 235 236 339 352 348 359 33 42 37 48 47 35 37 21 20 27 12 358 354 354 354 356 359 0 359 357 354 349 348 352 353 351 351 352 350 348 350 352 349 349 352 350 352 354 351 350 348 345 346 347 345 349 350 346 344 344 343 344 345 345 346 347 347 348 350 347 342 342 342 336 335 344 346 340 340 341 340 337 332 328 327 326 325 325 327 329 331
233 248 259 318 332 317 334 18 10 357 352 341 344 340 329 335 342 339 335 338 339 341 347 350 351 350 347 347 346 338 340 344 342 341 342 340 340 343 346 347 346 347 346 347 349 347 345 343 341 340 343 347 349 347 344 341 340 339 339 340 341 341 341 343 344 345 345 340 340 342 334 334 346 347 339 339 338 336 334 329 325 326 325 323 323 325 327 329
246 260 267 307 315 291 291 314 298 311 313 300 305 308 310 314 313 313 314 319 323 325 333 335 334 336 332 332 337 333 331 334 332 334 337 334 337 341 343 343 341 341 343 343 344 344 342 341 338 336 340 345 344 341 341 340 338 335 335 337 336 336 338 339 339 341 339 335 338 342 333 333 343 343 336 336 336 333 331 327 325 326 325 323 323 323 324 326
257 264 269 301 306 277 269 274 269 282 286 284 296 300 300 303 303 305 303 305 312 313 319 324 321 324 325 325 329 327 327 328 325 329 332 330 334 339 339 338 337 338 339 340 342 342 339 340 339 336 337 339 338 337 337 338 335 331 332 334 332 335 338 336 337 339 334 332 336 336 330 332 338 338 333 335 335 332 329 327 326 327 326 326 325 324 323 322
260 261 264 290 304 284 270 267 259 263 271 275 286 288 290 298 298 298 299 300 306 308 313 319 317 320 323 321 324 326 324 325 323 325 328 327 329 332 332 331 331 332 335 337 340 339 337 339 338 336 337 336 335 335 333 333 333 330 331 330 326 327 328 328 332 332 329 332 332 323 324 330 334 334 332 332 332 329 326 326 327 326 326 328 327 326 323 321
259 261 265 276 291 287 274 271 264 259 263 268 277 279 282 289 291 292 295 298 300 304 311 313 309 313 316 313 317 320 318 321 323 322 320 321 325 327 326 327 328 328 330 334 337 338 337 336 333 330 329 327 327 330 331 331 328 325 326 324 321 320 319 322 326 324 325 330 323 315 319 324 327 330 330 329 328 327 325 325 325 325 325 326 326 325 324 322
258 260 264 267 275 278 274 274 272 265 263 266 272 273 275 282 287 286 288 292 294 297 304 306 300 300 303 303 307 309 310 314 317 316 314 318 325 324 321 323 325 324 325 329 332 334 333 332 332 328 321 321 324 325 328 327 320 318 320 319 317 317 316 315 314 318 327 327 320 323 325 320 322 328 328 326 326 326 325 325 324 324 324 323 323 323 322 321
259 257 260 262 265 267 269 272 271 268 269 273 276 274 273 276 278 279 282 287 290 290 294 298 293 290 294 299 301 302 304 307 308 307 311 315 318 319 320 320 320 321 323 325 328 330 328 328 332 330 321 320 321 320 322 322 317 316 315 314 314 312 309 306 306 313 319 312 314 326 327 320 322 326 325 323 324 325 325 324 323 323 322 322 323 322 320 320
257 256 258 260 261 262 265 269 267 267 271 276 275 273 270 268 269 277 282 284 288 288 287 290 288 285 289 296 300 300 297 299 302 302 304 310 312 313 316 318 318 319 320 322 325 326 325 325 330 329 322 320 320 319 321 321 318 317 314 311 310 308 304 304 306 309 308 305 309 317 318 319 322 321 320 320 321 323 323 322 322 322 322 323 323 322 321 321
255 256 256 258 261 262 264 266 267 271 275 276 274 272 271 267 267 274 277 276 282 284 280 283 287 286 289 292 296 297 293 294 303 302 298 305 310 309 312 315 318 319 318 320 324 323 322 325 329 329 324 324 329 329 325 321 318 317 316 313 312 311 310 308 309 312 310 309 312 314 315 319 320 318 319 320 320 322 322 321 322 323 323 323 323 322 322 322
255 256 255 255 260 263 265 266 269 272 273 274 273 271 270 269 266 270 275 275 277 277 273 274 279 287 293 291 288 291 291 293 302 303 297 301 307 309 310 313 314 314 315 317 320 320 320 322 327 327 323 324 332 332 326 322 318 315 316 317 313 313 316 314 313 315 314 314 319 320 320 321 321 323 325 323 320 320 320 319 322 323 324 324 323 322 322 322
254 256 256 257 260 262 263 265 268 271 271 272 272 269 270 272 266 265 274 277 274 276 276 272 272 284 290 285 282 286 290 292 299 304 301 303 309 311 313 314 313 313 313 314 317 319 318 319 324 325 320 321 329 330 327 325 323 322 325 323 318 316 318 319 317 315 313 316 321 322 321 322 324 327 327 323 321 319 317 319 322 323 323 324 323 322 322 322